UAL1415 KMYR-KBOS

Flight info

Callsign UAL1415
Flight time N/A
Altitude 35000
Route CRE JAMIE CONFR Q133 JFK ROBUC3
Aircraft A21N/M-VGDW/C

Departure

Time 2026-04-23 00:31
Airport Myrtle Beach International Airport (KMYR)

Arrival

Time N/A
Airport Boston Logan International Airport (KBOS)
Time Latitude Longitude Altitude Speed Heading
2026-04-23 00:10 33.67964 -78.92447 31 ft 0 kts 30°
2026-04-23 00:22 33.67952 -78.92458 32 ft 3 kts 31°
2026-04-23 00:22 33.67932 -78.92456 31 ft 3 kts 292°
2026-04-23 00:24 33.67934 -78.92460 32 ft 2 kts 295°
2026-04-23 00:24 33.67955 -78.92495 32 ft 8 kts 305°
2026-04-23 00:24 33.68005 -78.92545 32 ft 12 kts 332°
2026-04-23 00:24 33.68106 -78.92573 32 ft 19 kts 356°
2026-04-23 00:25 33.68257 -78.92599 32 ft 23 kts 357°
2026-04-23 00:25 33.68429 -78.92622 32 ft 27 kts 352°
2026-04-23 00:25 33.68626 -78.92661 32 ft 30 kts 352°
2026-04-23 00:25 33.68812 -78.92693 32 ft 25 kts 349°
2026-04-23 00:26 33.68964 -78.92733 32 ft 20 kts 347°
2026-04-23 00:26 33.69085 -78.92768 32 ft 16 kts 346°
2026-04-23 00:26 33.69189 -78.92793 32 ft 15 kts 349°
2026-04-23 00:26 33.69280 -78.92831 32 ft 12 kts 314°
2026-04-23 00:27 33.69284 -78.92883 32 ft 0 kts 258°
2026-04-23 00:28 33.69283 -78.92890 32 ft 3 kts 258°
2026-04-23 00:28 33.69279 -78.92937 32 ft 5 kts 263°
2026-04-23 00:29 33.69270 -78.92988 33 ft 16 kts 258°
2026-04-23 00:29 33.69265 -78.93019 33 ft 0 kts 257°
2026-04-23 00:30 33.69205 -78.93124 33 ft 7 kts 195°
2026-04-23 00:31 33.69061 -78.93109 35 ft 62 kts 170°
2026-04-23 00:31 33.68297 -78.92913 50 ft 162 kts 170°
2026-04-23 00:31 33.66970 -78.92558 620 ft 221 kts 169°
2026-04-23 00:31 33.65401 -78.92136 1983 ft 234 kts 171°
2026-04-23 00:32 33.63751 -78.91684 3542 ft 253 kts 171°
2026-04-23 00:32 33.61995 -78.91188 5074 ft 263 kts 170°
2026-04-23 00:32 33.60204 -78.90532 6562 ft 279 kts 154°
2026-04-23 00:32 33.58795 -78.88903 7922 ft 289 kts 120°
2026-04-23 00:33 33.58174 -78.86603 9285 ft 294 kts 91°
2026-04-23 00:33 33.58513 -78.84206 10633 ft 293 kts 63°
2026-04-23 00:33 33.59745 -78.82264 11722 ft 299 kts 34°
2026-04-23 00:33 33.61557 -78.80936 12648 ft 315 kts 25°
2026-04-23 00:34 33.63560 -78.79681 13533 ft 335 kts 25°
2026-04-23 00:34 33.65674 -78.78297 14319 ft 356 kts 27°
2026-04-23 00:34 33.67880 -78.76771 15007 ft 377 kts 28°
2026-04-23 00:34 33.70186 -78.75186 16029 ft 384 kts 27°
2026-04-23 00:35 33.72530 -78.73618 17192 ft 389 kts 26°
2026-04-23 00:35 33.74934 -78.72013 18179 ft 399 kts 27°
2026-04-23 00:35 33.77343 -78.70378 19107 ft 405 kts 27°
2026-04-23 00:35 33.79802 -78.68699 20079 ft 410 kts 27°
2026-04-23 00:36 33.82297 -78.67011 21009 ft 414 kts 27°
2026-04-23 00:36 33.84834 -78.65301 21901 ft 420 kts 27°
2026-04-23 00:36 33.87396 -78.63563 22801 ft 425 kts 27°
2026-04-23 00:36 33.89983 -78.61802 23672 ft 430 kts 27°
2026-04-23 00:37 33.92604 -78.60021 24399 ft 434 kts 27°
2026-04-23 00:37 33.95238 -78.58234 25155 ft 437 kts 27°
2026-04-23 00:37 33.97906 -78.56420 25875 ft 441 kts 27°
2026-04-23 00:37 34.00586 -78.54594 26563 ft 445 kts 27°
2026-04-23 00:38 34.03289 -78.52753 27253 ft 448 kts 27°
2026-04-23 00:38 34.06013 -78.50897 27927 ft 451 kts 27°
2026-04-23 00:38 34.08750 -78.49029 28802 ft 449 kts 27°
2026-04-23 00:38 34.11452 -78.47182 29850 ft 444 kts 27°
2026-04-23 00:39 34.14127 -78.45355 30714 ft 441 kts 27°
2026-04-23 00:39 34.16789 -78.43537 31434 ft 439 kts 27°
2026-04-23 00:39 34.19448 -78.41718 32149 ft 437 kts 27°
2026-04-23 00:39 34.22055 -78.39932 32867 ft 435 kts 26°
2026-04-23 00:40 34.24709 -78.38114 33194 ft 443 kts 26°
2026-04-23 00:40 34.30058 -78.34444 33124 ft 440 kts 27°
2026-04-23 00:41 34.35382 -78.30788 33125 ft 439 kts 27°
2026-04-23 00:41 34.40685 -78.27140 33125 ft 438 kts 27°
2026-04-23 00:42 34.45999 -78.23480 33130 ft 446 kts 27°
2026-04-23 00:42 34.51408 -78.19747 33631 ft 448 kts 27°
2026-04-23 00:42 34.54087 -78.17892 34758 ft 440 kts 26°
2026-04-23 00:43 34.56763 -78.16045 35144 ft 449 kts 26°
2026-04-23 00:43 34.59522 -78.14146 35128 ft 462 kts 26°
2026-04-23 00:43 34.62302 -78.12216 35131 ft 459 kts 26°
2026-04-23 00:44 34.67867 -78.08353 35134 ft 460 kts 26°
2026-04-23 00:44 34.73431 -78.04495 35134 ft 460 kts 26°
2026-04-23 00:45 34.78978 -78.00635 35140 ft 459 kts 26°
2026-04-23 00:45 34.84507 -77.96786 35136 ft 458 kts 26°
2026-04-23 00:46 34.90041 -77.92925 35126 ft 458 kts 27°
2026-04-23 00:46 34.95564 -77.89067 35126 ft 457 kts 27°
2026-04-23 00:47 35.01081 -77.85207 35125 ft 457 kts 27°
2026-04-23 00:47 35.06558 -77.81368 35124 ft 457 kts 27°
2026-04-23 00:48 35.12065 -77.77504 35123 ft 456 kts 27°
2026-04-23 00:48 35.17569 -77.73634 35093 ft 456 kts 27°
2026-04-23 00:49 35.23076 -77.69758 35086 ft 456 kts 27°
2026-04-23 00:49 35.28579 -77.65876 35088 ft 457 kts 27°
2026-04-23 00:50 35.34085 -77.61987 35091 ft 457 kts 27°
2026-04-23 00:50 35.39596 -77.58088 35090 ft 457 kts 27°
2026-04-23 00:51 35.45095 -77.54192 35094 ft 456 kts 27°
2026-04-23 00:51 35.50560 -77.50313 35096 ft 457 kts 27°
2026-04-23 00:52 35.56060 -77.46404 35099 ft 457 kts 27°
2026-04-23 00:52 35.61564 -77.42484 35101 ft 457 kts 27°
2026-04-23 00:53 35.67059 -77.38566 35101 ft 457 kts 27°
2026-04-23 00:53 35.72552 -77.34642 35100 ft 456 kts 27°
2026-04-23 00:54 35.78033 -77.30721 35089 ft 456 kts 27°
2026-04-23 00:54 35.83512 -77.26795 35090 ft 456 kts 27°
2026-04-23 00:55 35.88986 -77.22866 35094 ft 455 kts 27°
2026-04-23 00:55 35.94473 -77.18922 35090 ft 455 kts 27°
2026-04-23 00:56 35.99947 -77.14980 35087 ft 455 kts 27°
2026-04-23 00:56 36.05416 -77.11036 35090 ft 455 kts 27°
2026-04-23 00:57 36.10884 -77.07085 35087 ft 455 kts 27°
2026-04-23 00:57 36.16341 -77.03137 35087 ft 455 kts 27°
2026-04-23 00:58 36.21767 -76.99204 35089 ft 455 kts 27°
2026-04-23 00:58 36.27225 -76.95242 35093 ft 454 kts 27°
2026-04-23 00:59 36.32681 -76.91275 35093 ft 454 kts 27°
2026-04-23 00:59 36.38126 -76.87309 35086 ft 454 kts 27°
2026-04-23 01:00 36.43579 -76.83331 35074 ft 454 kts 27°
2026-04-23 01:00 36.49024 -76.79352 35074 ft 454 kts 26°
2026-04-23 01:01 36.54463 -76.75371 35080 ft 453 kts 26°
2026-04-23 01:01 36.59871 -76.71406 35080 ft 453 kts 26°
2026-04-23 01:02 36.65305 -76.67416 35081 ft 453 kts 26°
2026-04-23 01:02 36.69863 -76.64064 35081 ft 454 kts 26°
2026-04-23 01:03 36.75304 -76.60056 35081 ft 454 kts 26°
2026-04-23 01:03 36.80707 -76.56069 35078 ft 454 kts 26°
2026-04-23 01:04 36.86141 -76.52053 35078 ft 454 kts 26°
2026-04-23 01:04 36.94299 -76.46011 35058 ft 454 kts 26°
2026-04-23 01:05 36.99741 -76.41972 35049 ft 455 kts 26°
2026-04-23 01:05 37.05182 -76.37928 35047 ft 454 kts 26°
2026-04-23 01:06 37.10607 -76.33888 35046 ft 454 kts 26°